STARLINK-11174, 60409

Orbit data source: Space-Track

STARLINK-11174, 60409 is a payload satellite owned by SpaceX/Seattle (US) in LEO that was launched on Sat, 10 Aug 2024 UTC via an FALCON 9 launch vehicle from the Air Force Eastern Test Range (AFETR). Payload-class satellites include a variety of spacecraft equipped with specific instruments for various scientific and technological missions. These include communications satellites like Starlink; space stations such as the ISS; scientific satellites like the Hubble; Earth observation satellites from companies like Planet Labs, Umbra, and HawkEye 360; GPS; miniature CubeSats for education and research; and military/defense satellites.

Loading next visibility...
Identifier
60409, 2024-141M
Orbit
LEO
Last TLE update
16 hours ago
Origin
Manufacturer
SpaceX/Seattle
Mission
Operational Commercial Communications
Bus & Motor
STARLINK V2M, Unknown motor
Mass
730 kg wet, ~700 kg dry
Launch date (UTC)
2024-08-10 (11 months ago)
Launch vehicle
FALCON 9
Launch site
Air Force Eastern Test Range (AFETR)
Object type
Payload
Rocket body
Debris
Shape & HBR
Box + 2 Pan, 29 m
Radar Cross Section
36.964 m², Large (>1 m²)

Expand to show TLE details & history

TLE from 16 hours ago
0 STARLINK-11174
1 60409U 24141M   25186.52649928 -.00000038  00000-0  45455-5 0  9998
2 60409  53.1587 224.6411 0001175 112.4839 247.6303 15.69703514 52870
Epoch: 2025-07-05T12:38Z
TLE epoch observation values (Epoch: 2025-07-05T12:38:09.537Z)
Latitude
-0.00007°
Longitude
111.33804°
Altitude
360.962 km
Speed
7.694 km/s
True Right ascension
14h 58m 33s
True Declination
0° 00' 00"
Sunlit
Object was in full shadow at epoch
Visualization orbit readout
Latitude
52.94426°
Longitude
-152.52054°
Altitude
365.466 km
Speed
7.697 km/s
Apparent Right ascension
01h 16m 24s
Apparent Declination
12° 56' 47"
Sunlit
Object is in daylight
Visualization observer readout
Local Sidereal Time
16:16:29
Azimuth
48.315° ENE
Elevation
-22.62°
Doppler factor
1
Orbital elements
Apogee altitude
360.798 km
Perigee altitude
359.214 km
Semi-major axis
6,738.143 km
Eccentricity
0.00012
Inclination
53.1587°
RAAN
224.6411°
Arg. of periapsis
112.4839°
True anomaly
Unknown
Mean anomaly
247.6303°
Eccentric anomaly
Unknown
Mean motion
3.92403 °/min
Orbital period
91.74 mins
BSTAR
0.0000045455
Loading maneuver chart data...
Loading SW <> Apogee altitude chart data...
Loading historical data...
Loading historical data...
Loading historical data...
Loading historical data...
Loading historical data...
Loading historical data...
Loading historical data...

STARLINK-11174 Visibility forecast

Observer location: undefined°, undefined°

Span
Click to sort rows by Start time (UTC) header in descending order
Start Az.
Max El. time (UTC)
Max El. Az.
Max El.
End time (UTC)
End Az.
5 mins2025-07-06 05:38:19.696Z244.759° WSW2025-07-06 05:41:19.696Z356.844° N36.818°2025-07-06 05:43:19.696Z39.601° NE
4 mins2025-07-06 12:04:19.696Z310.72° NW2025-07-06 12:05:19.696Z312.475° NW42.752°2025-07-06 12:08:19.696Z130.579° SE
|